Time,TemperatureF,DewpointF,PressureIn,WindDirection,WindDirectionDegrees,WindSpeedMPH,WindSpeedGustMPH,Humidity,HourlyPrecipIn,Conditions,Clouds,dailyrainin,SoftwareType,DateUTC
2013-11-10 00:11:00,46.2,36.2,29.88,West,270,5.3,-999.0,68,-99.99,,,0.00,Acu-Link.com,2013-11-10 05:11:00,
2013-11-10 00:26:00,45.9,36.3,29.89,SW,225,5.3,-999.0,69,-99.99,,,0.00,Acu-Link.com,2013-11-10 05:26:00,
2013-11-10 00:41:00,45.7,36.5,29.89,SW,225,4.7,-999.0,70,-99.99,,,0.00,Acu-Link.com,2013-11-10 05:41:00,
2013-11-10 00:56:00,45.5,36.3,29.89,WSW,247,4.2,-999.0,70,-99.99,,,0.00,Acu-Link.com,2013-11-10 05:56:00,
2013-11-10 01:11:00,45.1,36.3,29.89,SW,225,5.3,-999.0,71,-99.99,,,0.00,Acu-Link.com,2013-11-10 06:11:00,
2013-11-10 01:26:00,44.8,36.3,29.89,WSW,247,4.7,-999.0,72,-99.99,,,0.00,Acu-Link.com,2013-11-10 06:26:00,
2013-11-10 01:41:00,44.6,36.5,29.89,SW,225,5.3,-999.0,73,-99.99,,,0.00,Acu-Link.com,2013-11-10 06:41:00,
2013-11-10 01:57:00,44.8,36.7,29.89,SW,225,4.2,-999.0,73,-99.99,,,0.00,Acu-Link.com,2013-11-10 06:57:00,
2013-11-10 02:12:00,44.1,36.4,29.90,SSW,202,3.2,-999.0,74,-99.99,,,0.00,Acu-Link.com,2013-11-10 07:12:00,
2013-11-10 02:27:00,44.1,36.4,29.91,SW,225,3.2,-999.0,74,-99.99,,,0.00,Acu-Link.com,2013-11-10 07:27:00,
2013-11-10 02:42:00,43.7,36.3,29.91,WSW,247,5.3,-999.0,75,-99.99,,,0.00,Acu-Link.com,2013-11-10 07:42:00,
2013-11-10 02:57:00,43.3,36.3,29.91,WSW,247,3.2,-999.0,76,-99.99,,,0.00,Acu-Link.com,2013-11-10 07:57:00,
2013-11-10 03:12:00,42.8,36.1,29.92,SW,225,3.2,-999.0,77,-99.99,,,0.00,Acu-Link.com,2013-11-10 08:12:00,
2013-11-10 03:27:00,42.1,36.1,29.92,SW,225,2.7,-999.0,79,-99.99,,,0.00,Acu-Link.com,2013-11-10 08:27:00,
2013-11-10 03:42:00,41.4,35.7,29.92,SW,225,2.7,-999.0,80,-99.99,,,0.00,Acu-Link.com,2013-11-10 08:42:00,
2013-11-10 03:57:00,40.6,35.5,29.92,West,270,1.1,-999.0,82,-99.99,,,0.00,Acu-Link.com,2013-11-10 08:57:00,
2013-11-10 04:13:00,40.1,35.7,29.91,West,270,1.1,-999.0,84,-99.99,,,0.00,Acu-Link.com,2013-11-10 09:13:00,
2013-11-10 04:28:00,40.1,36.0,29.92,SW,225,1.7,-999.0,85,-99.99,,,0.00,Acu-Link.com,2013-11-10 09:28:00,
2013-11-10 04:43:00,39.9,36.1,29.92,WSW,247,0.0,-999.0,86,-99.99,,,0.00,Acu-Link.com,2013-11-10 09:43:00,
2013-11-10 04:58:00,41.0,37.1,29.92,SSW,202,2.2,-999.0,86,-99.99,,,0.00,Acu-Link.com,2013-11-10 09:58:00,
2013-11-10 05:13:00,41.5,37.3,29.92,WSW,247,3.2,-999.0,85,-99.99,,,0.00,Acu-Link.com,2013-11-10 10:13:00,
2013-11-10 05:28:00,42.3,37.8,29.93,WSW,247,2.7,-999.0,84,-99.99,,,0.00,Acu-Link.com,2013-11-10 10:28:00,
2013-11-10 05:43:00,42.3,37.8,29.93,WSW,247,2.7,-999.0,84,-99.99,,,0.00,Acu-Link.com,2013-11-10 10:43:00,
2013-11-10 05:58:00,42.1,37.6,29.94,WSW,247,3.7,-999.0,84,-99.99,,,0.00,Acu-Link.com,2013-11-10 10:58:00,
2013-11-10 06:13:00,42.3,38.1,29.94,SW,225,2.7,-999.0,85,-99.99,,,0.00,Acu-Link.com,2013-11-10 11:13:00,
2013-11-10 06:29:00,42.1,37.9,29.94,SW,225,3.2,-999.0,85,-99.99,,,0.00,Acu-Link.com,2013-11-10 11:29:00,
2013-11-10 06:44:00,42.1,38.2,29.95,SW,225,3.7,-999.0,86,-99.99,,,0.00,Acu-Link.com,2013-11-10 11:44:00,
2013-11-10 06:59:00,42.3,38.4,29.96,WSW,247,3.2,-999.0,86,-99.99,,,0.00,Acu-Link.com,2013-11-10 11:59:00,
2013-11-10 07:14:00,42.1,38.2,29.96,WSW,247,2.2,-999.0,86,-99.99,,,0.00,Acu-Link.com,2013-11-10 12:14:00,
2013-11-10 07:29:00,41.5,37.9,29.97,SW,225,2.7,-999.0,87,-99.99,,,0.00,Acu-Link.com,2013-11-10 12:29:00,
2013-11-10 07:44:00,42.8,38.9,29.97,SW,225,2.2,-999.0,86,-99.99,,,0.00,Acu-Link.com,2013-11-10 12:44:00,
2013-11-10 07:59:00,44.1,39.9,29.98,SW,225,2.7,-999.0,85,-99.99,,,0.00,Acu-Link.com,2013-11-10 12:59:00,
2013-11-10 08:14:00,45.3,40.4,29.99,West,270,4.2,-999.0,83,-99.99,,,0.00,Acu-Link.com,2013-11-10 13:14:00,
2013-11-10 08:29:00,46.4,41.2,29.99,WSW,247,4.2,-999.0,82,-99.99,,,0.00,Acu-Link.com,2013-11-10 13:29:00,
2013-11-10 08:45:00,48.0,41.8,29.99,West,270,9.9,-999.0,79,-99.99,,,0.00,Acu-Link.com,2013-11-10 13:45:00,
2013-11-10 09:00:00,49.5,41.9,30.00,West,270,7.3,-999.0,75,-99.99,,,0.00,Acu-Link.com,2013-11-10 14:00:00,
2013-11-10 09:15:00,50.0,40.6,29.99,West,270,5.8,-999.0,70,-99.99,,,0.00,Acu-Link.com,2013-11-10 14:15:00,
2013-11-10 09:30:00,50.9,40.0,29.99,West,270,5.8,-999.0,66,-99.99,,,0.00,Acu-Link.com,2013-11-10 14:30:00,
2013-11-10 09:45:00,51.3,39.1,30.00,WSW,247,7.3,-999.0,63,-99.99,,,0.00,Acu-Link.com,2013-11-10 14:45:00,
2013-11-10 10:15:00,52.3,37.5,30.02,NW,315,15.0,-999.0,57,-99.99,,,0.00,Acu-Link.com,2013-11-10 15:15:00,
2013-11-10 10:30:00,52.2,37.9,30.02,SW,225,6.3,-999.0,58,-99.99,,,0.00,Acu-Link.com,2013-11-10 15:30:00,
2013-11-10 10:45:00,52.0,37.7,30.03,West,270,11.9,-999.0,58,-99.99,,,0.00,Acu-Link.com,2013-11-10 15:45:00,
2013-11-10 11:01:00,53.1,38.3,30.03,SW,225,4.7,-999.0,57,-99.99,,,0.00,Acu-Link.com,2013-11-10 16:01:00,
2013-11-10 11:16:00,53.1,35.9,30.03,WNW,292,9.9,-999.0,52,-99.99,,,0.00,Acu-Link.com,2013-11-10 16:16:00,
2013-11-10 11:31:00,53.4,35.7,30.04,NNW,337,11.9,-999.0,51,-99.99,,,0.00,Acu-Link.com,2013-11-10 16:31:00,
2013-11-10 11:46:00,53.4,34.7,30.04,NW,315,9.4,-999.0,49,-99.99,,,0.00,Acu-Link.com,2013-11-10 16:46:00,
2013-11-10 12:01:00,53.6,35.4,30.03,NNW,337,4.2,-999.0,50,-99.99,,,0.00,Acu-Link.com,2013-11-10 17:01:00,
2013-11-10 12:16:00,54.0,34.2,30.04,West,270,8.3,-999.0,47,-99.99,,,0.00,Acu-Link.com,2013-11-10 17:16:00,
2013-11-10 12:31:00,54.1,33.8,30.03,West,270,11.9,-999.0,46,-99.99,,,0.00,Acu-Link.com,2013-11-10 17:31:00,
2013-11-10 12:46:00,53.6,32.8,30.03,WNW,292,6.8,-999.0,45,-99.99,,,0.00,Acu-Link.com,2013-11-10 17:46:00,
2013-11-10 13:01:00,54.0,34.2,30.02,SW,225,3.2,-999.0,47,-99.99,,,0.00,Acu-Link.com,2013-11-10 18:01:00,
2013-11-10 13:17:00,54.3,33.4,30.02,WNW,292,6.3,-999.0,45,-99.99,,,0.00,Acu-Link.com,2013-11-10 18:17:00,
2013-11-10 13:32:00,54.3,33.4,30.02,West,270,4.7,-999.0,45,-99.99,,,0.00,Acu-Link.com,2013-11-10 18:32:00,
2013-11-10 13:47:00,53.8,33.5,30.02,WSW,247,5.8,-999.0,46,-99.99,,,0.00,Acu-Link.com,2013-11-10 18:47:00,
2013-11-10 14:02:00,53.8,33.5,30.02,West,270,6.8,-999.0,46,-99.99,,,0.00,Acu-Link.com,2013-11-10 19:02:00,
2013-11-10 14:17:00,54.1,32.7,30.02,West,270,6.8,-999.0,44,-99.99,,,0.00,Acu-Link.com,2013-11-10 19:17:00,
2013-11-10 14:32:00,54.3,32.9,30.02,WNW,292,7.3,-999.0,44,-99.99,,,0.00,Acu-Link.com,2013-11-10 19:32:00,
2013-11-10 14:47:00,53.6,32.2,30.02,WNW,292,3.7,-999.0,44,-99.99,,,0.00,Acu-Link.com,2013-11-10 19:47:00,
2013-11-10 15:02:00,54.3,32.9,30.01,West,270,5.8,-999.0,44,-99.99,,,0.00,Acu-Link.com,2013-11-10 20:02:00,
2013-11-10 15:47:00,53.6,31.1,30.01,West,270,8.3,-999.0,42,-99.99,,,0.00,Acu-Link.com,2013-11-10 20:47:00,
2013-11-10 16:15:00,53.6,31.1,30.02,WNW,292,3.7,-999.0,42,-99.99,,,0.00,Acu-Link.com,2013-11-10 21:15:00,
2013-11-10 16:30:00,53.6,31.1,30.02,WSW,247,3.2,-999.0,42,-99.99,,,0.00,Acu-Link.com,2013-11-10 21:30:00,
2013-11-10 16:45:00,53.6,31.1,30.02,WNW,292,2.7,-999.0,42,-99.99,,,0.00,Acu-Link.com,2013-11-10 21:45:00,
2013-11-10 17:00:00,52.0,30.8,30.03,NNW,337,2.7,-999.0,44,-99.99,,,0.00,Acu-Link.com,2013-11-10 22:00:00,
2013-11-10 17:15:00,50.2,30.2,30.03,West,270,0.0,-999.0,46,-99.99,,,0.00,Acu-Link.com,2013-11-10 22:15:00,
2013-11-10 17:30:00,46.4,28.8,30.03,SSW,202,0.0,-999.0,50,-99.99,,,0.00,Acu-Link.com,2013-11-10 22:30:00,
2013-11-10 17:45:00,43.3,28.7,30.03,SE,135,0.0,-999.0,56,-99.99,,,0.00,Acu-Link.com,2013-11-10 22:45:00,
2013-11-10 18:00:00,41.2,28.0,30.03,NNW,337,0.0,-999.0,59,-99.99,,,0.00,Acu-Link.com,2013-11-10 23:00:00,
2013-11-10 18:15:00,39.7,28.2,30.04,South,180,0.0,-999.0,63,-99.99,,,0.00,Acu-Link.com,2013-11-10 23:15:00,
2013-11-10 18:31:00,38.8,27.7,30.04,South,180,0.0,-999.0,64,-99.99,,,0.00,Acu-Link.com,2013-11-10 23:31:00,
2013-11-10 18:46:00,37.0,27.4,30.05,SSW,202,0.0,-999.0,68,-99.99,,,0.00,Acu-Link.com,2013-11-10 23:46:00,
2013-11-10 19:01:00,35.6,27.1,30.05,ESE,112,0.0,-999.0,71,-99.99,,,0.00,Acu-Link.com,2013-11-11 00:01:00,
2013-11-10 19:16:00,34.7,27.3,30.06,West,270,0.0,-999.0,74,-99.99,,,0.00,Acu-Link.com,2013-11-11 00:16:00,
2013-11-10 19:31:00,34.3,26.6,30.05,NE,45,0.0,-999.0,73,-99.99,,,0.00,Acu-Link.com,2013-11-11 00:31:00,
2013-11-10 19:46:00,33.6,26.9,30.05,North,0,0.0,-999.0,76,-99.99,,,0.00,Acu-Link.com,2013-11-11 00:46:00,
2013-11-10 20:01:00,32.5,26.4,30.07,SSW,202,0.0,-999.0,78,-99.99,,,0.00,Acu-Link.com,2013-11-11 01:01:00,
2013-11-10 20:16:00,32.2,26.7,30.05,SW,225,0.0,-999.0,80,-99.99,,,0.00,Acu-Link.com,2013-11-11 01:16:00,
2013-11-10 20:31:00,32.9,26.8,30.07,NE,45,0.0,-999.0,78,-99.99,,,0.00,Acu-Link.com,2013-11-11 01:31:00,
2013-11-10 20:46:00,32.9,27.1,30.06,WSW,247,0.0,-999.0,79,-99.99,,,0.00,Acu-Link.com,2013-11-11 01:46:00,
2013-11-10 21:02:00,33.6,27.8,30.06,South,180,0.0,-999.0,79,-99.99,,,0.00,Acu-Link.com,2013-11-11 02:02:00,
2013-11-10 21:17:00,33.1,27.6,30.07,WSW,247,0.0,-999.0,80,-99.99,,,0.00,Acu-Link.com,2013-11-11 02:17:00,
2013-11-10 21:32:00,32.4,27.5,30.07,SSE,157,0.0,-999.0,82,-99.99,,,0.00,Acu-Link.com,2013-11-11 02:32:00,
2013-11-10 21:47:00,31.8,26.9,30.07,South,180,0.0,-999.0,82,-99.99,,,0.00,Acu-Link.com,2013-11-11 02:47:00,
2013-11-10 22:02:00,30.7,26.7,30.07,East,90,0.0,-999.0,85,-99.99,,,0.00,Acu-Link.com,2013-11-11 03:02:00,
2013-11-10 22:17:00,29.8,25.6,30.07,ESE,112,0.0,-999.0,84,-99.99,,,0.00,Acu-Link.com,2013-11-11 03:17:00,
2013-11-10 22:32:00,29.1,25.2,30.07,West,270,0.0,-999.0,85,-99.99,,,0.00,Acu-Link.com,2013-11-11 03:32:00,
2013-11-10 22:47:00,28.6,24.7,30.07,ESE,112,0.0,-999.0,85,-99.99,,,0.00,Acu-Link.com,2013-11-11 03:47:00,
2013-11-10 23:02:00,28.2,25.4,30.06,ESE,112,0.0,-999.0,89,-99.99,,,0.00,Acu-Link.com,2013-11-11 04:02:00,
2013-11-10 23:18:00,27.7,24.9,30.06,SSE,157,0.0,-999.0,89,-99.99,,,0.00,Acu-Link.com,2013-11-11 04:18:00,
2013-11-10 23:33:00,27.5,27.0,30.06,West,270,0.0,-999.0,98,-99.99,,,0.00,Acu-Link.com,2013-11-11 04:33:00,
2013-11-10 23:48:00,27.5,27.0,30.06,WNW,292,0.0,-999.0,98,-99.99,,,0.00,Acu-Link.com,2013-11-11 04:48:00,